ETD204 OMAA-VABB

Flight info

Callsign ETD204
Flight time N/A
Altitude 39000
Route KANIP N318 GEVED N881 AMBOS M700 PARAR N571 SUGID KETOR2A
Aircraft A388/J-SADE2E3FGHIJ3J4J5M1RWXY/LB1D1

Departure

Time 2026-04-27 17:12
Airport Zayed International Airport (OMAA)

Arrival

Time N/A
Airport Chhatrapati Shivaji Maharaj International Airport (VABB)
Time Latitude Longitude Altitude Speed Heading
2026-04-27 17:07 24.42968 54.66065 87 ft 25 kts 128°
2026-04-27 17:07 24.42859 54.66216 86 ft 25 kts 128°
2026-04-27 17:08 24.42766 54.66346 86 ft 10 kts 128°
2026-04-27 17:08 24.42719 54.66412 84 ft 13 kts 128°
2026-04-27 17:08 24.42660 54.66494 86 ft 13 kts 128°
2026-04-27 17:08 24.42600 54.66578 84 ft 8 kts 128°
2026-04-27 17:09 24.42558 54.66637 86 ft 12 kts 128°
2026-04-27 17:09 24.42497 54.66722 86 ft 16 kts 128°
2026-04-27 17:09 24.42425 54.66822 84 ft 12 kts 128°
2026-04-27 17:09 24.42358 54.66854 85 ft 12 kts 201°
2026-04-27 17:10 24.42282 54.66797 86 ft 15 kts 218°
2026-04-27 17:10 24.42207 54.66730 85 ft 12 kts 234°
2026-04-27 17:10 24.42211 54.66656 85 ft 11 kts 306°
2026-04-27 17:10 24.42233 54.66626 86 ft 3 kts 309°
2026-04-27 17:11 24.42238 54.66619 83 ft 0 kts 309°
2026-04-27 17:11 24.42319 54.66508 85 ft 56 kts 308°
2026-04-27 17:12 24.43406 54.64991 193 ft 169 kts 308°
2026-04-27 17:12 24.44148 54.63989 751 ft 169 kts 307°
2026-04-27 17:12 24.44876 54.62974 1346 ft 170 kts 307°
2026-04-27 17:13 24.45590 54.61934 1920 ft 170 kts 305°
2026-04-27 17:13 24.46318 54.60841 2271 ft 186 kts 306°
2026-04-27 17:13 24.47143 54.59653 2566 ft 204 kts 307°
2026-04-27 17:13 24.48059 54.58375 2747 ft 221 kts 307°
2026-04-27 17:14 24.49038 54.57010 3090 ft 238 kts 307°
2026-04-27 17:14 24.50061 54.55579 4091 ft 234 kts 307°
2026-04-27 17:14 24.51070 54.54165 5083 ft 236 kts 307°
2026-04-27 17:14 24.52088 54.52734 6053 ft 239 kts 307°
2026-04-27 17:15 24.53119 54.51283 6986 ft 243 kts 307°
2026-04-27 17:15 24.54163 54.49808 7931 ft 246 kts 307°
2026-04-27 17:15 24.55222 54.48307 8784 ft 252 kts 307°
2026-04-27 17:15 24.56300 54.46781 9116 ft 254 kts 307°
2026-04-27 17:16 24.57388 54.45242 9201 ft 255 kts 307°
2026-04-27 17:16 24.58463 54.43720 9199 ft 255 kts 307°
2026-04-27 17:16 24.59716 54.42325 9199 ft 255 kts 328°
2026-04-27 17:16 24.61364 54.41733 9200 ft 256 kts 357°
2026-04-27 17:17 24.63106 54.42100 9217 ft 260 kts 27°
2026-04-27 17:17 24.64523 54.43394 9338 ft 277 kts 55°
2026-04-27 17:17 24.65263 54.45405 9821 ft 292 kts 83°
2026-04-27 17:18 24.64440 54.49862 10907 ft 320 kts 112°
2026-04-27 17:18 24.63583 54.52211 11157 ft 341 kts 111°
2026-04-27 17:18 24.62750 54.54689 11801 ft 348 kts 109°
2026-04-27 17:18 24.61981 54.57224 12548 ft 351 kts 108°
2026-04-27 17:19 24.61249 54.59806 13265 ft 355 kts 107°
2026-04-27 17:19 24.60532 54.62415 13970 ft 359 kts 107°
2026-04-27 17:19 24.59814 54.65056 14662 ft 363 kts 107°
2026-04-27 17:19 24.59088 54.67731 15342 ft 367 kts 107°
2026-04-27 17:20 24.58354 54.70423 16001 ft 370 kts 107°
2026-04-27 17:20 24.57612 54.73145 16640 ft 374 kts 107°
2026-04-27 17:20 24.56860 54.75896 17260 ft 377 kts 107°
2026-04-27 17:20 24.56100 54.78672 17864 ft 381 kts 107°
2026-04-27 17:21 24.55332 54.81470 18448 ft 384 kts 107°
2026-04-27 17:21 24.54557 54.84294 19015 ft 388 kts 107°
2026-04-27 17:21 24.53775 54.87140 19566 ft 391 kts 107°
2026-04-27 17:21 24.52986 54.90010 20093 ft 394 kts 107°
2026-04-27 17:22 24.52189 54.92907 20626 ft 397 kts 107°
2026-04-27 17:22 24.51385 54.95826 21140 ft 401 kts 107°
2026-04-27 17:22 24.50575 54.98763 21645 ft 404 kts 107°
2026-04-27 17:22 24.49759 55.01722 22136 ft 407 kts 107°
2026-04-27 17:23 24.48934 55.04709 22615 ft 410 kts 107°
2026-04-27 17:23 24.48104 55.07713 23086 ft 413 kts 107°
2026-04-27 17:23 24.47268 55.10736 23552 ft 416 kts 107°
2026-04-27 17:23 24.46424 55.13786 24007 ft 419 kts 107°
2026-04-27 17:24 24.45585 55.16811 24457 ft 422 kts 107°
2026-04-27 17:24 24.44729 55.19898 24896 ft 425 kts 107°
2026-04-27 17:24 24.43865 55.23010 25349 ft 428 kts 107°
2026-04-27 17:24 24.42997 55.26139 25832 ft 431 kts 107°
2026-04-27 17:25 24.42120 55.29292 26292 ft 434 kts 107°
2026-04-27 17:25 24.41236 55.32469 26773 ft 437 kts 107°
2026-04-27 17:25 24.40345 55.35668 27265 ft 440 kts 107°
2026-04-27 17:25 24.39445 55.38894 27751 ft 444 kts 107°
2026-04-27 17:26 24.38539 55.42141 28233 ft 447 kts 107°
2026-04-27 17:26 24.37625 55.45414 28722 ft 450 kts 107°
2026-04-27 17:26 24.36705 55.48705 29187 ft 454 kts 107°
2026-04-27 17:26 24.35775 55.52028 29663 ft 457 kts 107°
2026-04-27 17:27 24.34840 55.55369 30133 ft 460 kts 107°
2026-04-27 17:27 24.33895 55.58738 30598 ft 464 kts 107°
2026-04-27 17:27 24.32943 55.62133 31075 ft 467 kts 107°
2026-04-27 17:27 24.31983 55.65552 31514 ft 470 kts 107°
2026-04-27 17:28 24.31016 55.68989 31951 ft 474 kts 107°
2026-04-27 17:28 24.30042 55.72451 32378 ft 477 kts 107°
2026-04-27 17:28 24.28072 55.79442 33218 ft 483 kts 107°
2026-04-27 17:29 24.27076 55.82972 33630 ft 486 kts 107°
2026-04-27 17:29 24.26072 55.86528 34027 ft 490 kts 107°
2026-04-27 17:29 24.25061 55.90103 34424 ft 493 kts 107°
2026-04-27 17:29 24.24044 55.93694 34882 ft 494 kts 107°
2026-04-27 17:30 24.23026 55.97290 35429 ft 493 kts 107°
2026-04-27 17:30 24.20996 56.04443 36509 ft 491 kts 107°
2026-04-27 17:30 24.19980 56.08019 36970 ft 491 kts 107°
2026-04-27 17:31 24.18963 56.11595 37423 ft 491 kts 108°
2026-04-27 17:31 24.17945 56.15170 37863 ft 491 kts 108°
2026-04-27 17:31 24.16927 56.18743 38302 ft 491 kts 108°
2026-04-27 17:31 24.15909 56.22313 38723 ft 491 kts 108°
2026-04-27 17:32 24.14886 56.25892 38982 ft 495 kts 108°
2026-04-27 17:32 24.12828 56.33090 39002 ft 493 kts 108°
2026-04-27 17:33 24.10785 56.40219 39005 ft 495 kts 108°
2026-04-27 17:33 24.08723 56.47402 38997 ft 495 kts 108°
2026-04-27 17:34 24.06657 56.54587 39003 ft 495 kts 108°
2026-04-27 17:34 24.04588 56.61764 39004 ft 495 kts 108°
2026-04-27 17:35 24.02513 56.68950 38997 ft 495 kts 108°
2026-04-27 17:35 24.00437 56.76128 39004 ft 495 kts 108°
2026-04-27 17:36 23.98355 56.83308 38997 ft 495 kts 108°
2026-04-27 17:36 23.96270 56.90490 38997 ft 495 kts 108°
2026-04-27 17:37 23.94184 56.97655 39002 ft 495 kts 108°
2026-04-27 17:37 23.92111 57.04768 39002 ft 495 kts 108°
2026-04-27 17:38 23.90017 57.11937 38999 ft 495 kts 108°
2026-04-27 17:38 23.87922 57.19095 39002 ft 495 kts 108°
2026-04-27 17:39 23.85823 57.26254 38999 ft 495 kts 108°
2026-04-27 17:39 23.83719 57.33413 39006 ft 495 kts 108°
2026-04-27 17:40 23.81613 57.40570 39001 ft 495 kts 108°
2026-04-27 17:40 23.79504 57.47721 39002 ft 495 kts 108°
2026-04-27 17:41 23.77391 57.54875 38998 ft 495 kts 108°
2026-04-27 17:41 23.75274 57.62026 38998 ft 495 kts 108°
2026-04-27 17:42 23.73155 57.69172 39004 ft 495 kts 108°
2026-04-27 17:42 23.71033 57.76313 39006 ft 495 kts 108°
2026-04-27 17:43 23.69266 57.82247 39001 ft 495 kts 108°
2026-04-27 17:43 23.67138 57.89387 38997 ft 495 kts 108°
2026-04-27 17:44 23.65004 57.96530 39003 ft 495 kts 108°
2026-04-27 17:44 23.62871 58.03658 38997 ft 495 kts 108°
2026-04-27 17:45 23.60732 58.10794 38996 ft 495 kts 108°
2026-04-27 17:45 23.58594 58.17913 38993 ft 495 kts 108°
2026-04-27 17:46 23.56815 58.23826 38999 ft 495 kts 108°
2026-04-27 17:46 23.54667 58.30953 39001 ft 495 kts 108°
2026-04-27 17:47 23.52531 58.38028 39005 ft 495 kts 108°
2026-04-27 17:47 23.50378 58.45144 38997 ft 495 kts 108°
2026-04-27 17:48 23.48221 58.52264 38997 ft 495 kts 108°
2026-04-27 17:48 23.46058 58.59389 38999 ft 495 kts 108°
2026-04-27 17:49 23.43895 58.66502 38999 ft 495 kts 108°
2026-04-27 17:49 23.41726 58.73619 38998 ft 495 kts 109°
2026-04-27 17:50 23.39556 58.80727 38998 ft 495 kts 109°
2026-04-27 17:50 23.36296 58.91384 38999 ft 495 kts 109°
2026-04-27 17:51 23.34130 58.98450 39003 ft 495 kts 109°
2026-04-27 17:51 23.31950 59.05545 39005 ft 495 kts 109°
2026-04-27 17:52 23.29766 59.12643 38999 ft 495 kts 109°
2026-04-27 17:52 23.27579 59.19737 39002 ft 495 kts 109°
2026-04-27 17:53 23.25389 59.26830 38998 ft 495 kts 109°
2026-04-27 17:53 23.23921 59.31575 39003 ft 495 kts 109°